Weather in Staryy Piniger

Russia / Kirov Oblast     56°12′08″N   50°56′20″E
temp.,
°C
wind,
m/s
gust,
m/s
humid.,
%
clouds,
%
prec.,
mm/h
press.,
hPa
HPBL,
m
6 march, sat
sat600:00−12wsw499681 0.0 1007142
03:00−14wsw349772 0.1 100964
06:00−11wnw369698 0.9 1010240
09:00−13nw369096 1.0 1012259
12:00−12wnw368870 0.0 1013345
15:00−11wnw368951 0.0 1013675
18:00−15w239496 0.1 101323
21:00−16wsw229790 0.1 101420
7 march, sun
sun700:00−17wsw229881 0.1 101221
03:00−18sw229881 0.1 101220
06:00−18sw2298100 0.1 101120
09:00−16sw229696 0.1 1011116
12:00−12ssw249192 0.0 1009297
15:00−11s369294 0.0 1007395
18:00−14sse4797100 0.0 1006110
21:00−11sse51194100 0.1 1004351
8 march, mon
mon800:00−10sse61293100 0.3 1000525
03:00−9sse71393100 0.7 997647
06:00−6s61295100 1.1 995683
09:00−10sw5118869 1.3 996434
12:00−7sw6118823 0.0 997543
15:00−7ssw6128261 0.0 998522
18:00−10sse348895 0.0 99660
21:00−10e369397 0.1 994116
9 march, tue
tue900:00−9n3596100 4.8 993190
03:00−11wnw61091100 6.7 994259
06:00−10w6119399 0.1 998379
09:00−10w599299 0.2 1001448
12:00−10wnw5890100 0.1 1005519
15:00−11wnw4789100 0.2 1007670
18:00−14wnw379497 0.1 1008179
21:00−16wnw349697 0.1 101074
10 march, wed
wed1000:00−16wnw349697 0.1 1011106
03:00−16nw359798 0.2 1012113
06:00−17nw3597100 0.1 1012151
09:00−17nnw4694100 0.2 1014351
12:00−16nnw4691100 0.1 1015498
15:00−16nw5791100 0.1 1015498
18:00−20nw4897100 0.1 1016170
21:00−24nw349773 0.1 101942